Regional Weather Roundup
Issued by NWS

Home | Current Version | Previous Version | Text Only | Print | Product List | Glossary On
Versions: 1 2 3 4 5 6 7 8 9 10 11 12 13 14 15 16 17 18 19 20 21 22 23 24 25 26 27 28 29 30 31 32 33 34 35 36 37 38 39 40 41 42 43 44 45 46 47 48 49 50
000
ASUS44 KJAN 220103
RWRMS

MISSISSIPPI HOURLY WEATHER ROUNDUP
NATIONAL WEATHER SERVICE JACKSON MS
700 PM CST SUN DEC 21 2014

NOTE: "FAIR: INDICATES FEW OR NO CLOUDS BELOW 12,000 FEET WITH NO
SIGNIFICANT WEATHER AND/OR OBSTRUCTIONS TO VISIBILITY.

MSZ001>002-007>008-010>013-018>021-025>028-034>036-220200-
NORTHWEST MISSISSIPPI

CITY           SKY/WX    TMP DP  RH WIND       PRES   REMARKS
CLARKSDALE     FAIR      46  39  76 CALM      30.00S
CLEVELAND      FAIR      44  40  88 E6        29.97F
GREENWOOD      CLEAR     46  41  82 CALM      29.99F
GREENVILLE     CLEAR     47  40  76 E6        29.97F
GRENADA        FAIR      46  43  87 CALM      30.01S
OLIVE BRANCH   PTCLDY    45  36  70 CALM      30.00F
OXFORD         FAIR      45  39  81 SE5       30.03S
TUNICA         CLEAR     45  36  70 E6        30.00S
$$

MSZ003>006-009-014>017-022>024-029>033-037>039-220200-
NORTHEAST MISSISSIPPI

CITY           SKY/WX    TMP DP  RH WIND       PRES   REMARKS
COLUMBUS AFB   MOCLDY    46  43  89 SE5       30.05R
CORINTH        FAIR      45  39  81 SE3       30.02F
STARKVILLE     MOCLDY    46  45  93 E5        30.04S
TUPELO         CLEAR     44  38  79 CALM      30.03F
$$

MSZ040-058-220200-
CENTRAL MISSISSIPPI

CITY           SKY/WX    TMP DP  RH WIND       PRES   REMARKS
JACKSON INTL   MOCLDY    50  47  89 E5        30.02R
JACKSON HAWKNS CLEAR     51  46  83 E7        30.01R
MERIDIAN KEY   CLOUDY    49  46  90 NE6       30.04S
MERIDIAN NAS   FOG       48  47  96 E3        30.05S VSB 3/4
RAYMOND        FAIR      46  41  81 MISG      30.00R
VICKSBURG      CLEAR     49  45  86 SE7       29.97F
$$

MSZ059>079-220200-
SOUTH MISSISSIPPI

CITY           SKY/WX    TMP DP  RH WIND       PRES   REMARKS
HATTIESBURG    CLOUDY    54  51  90 E6        30.01F
MCCOMB         CLOUDY    55  50  83 E8        29.97F
NATCHEZ        CLOUDY    55  48  76 SE7       29.99F
PINE BELT      CLOUDY    52  46  82 NE3       30.03S
$$

MSZ080>082-220200-
COASTAL MISSISSIPPI

CITY           SKY/WX    TMP DP  RH WIND       PRES   REMARKS
BAY ST LOUIS   MOCLDY    54  48  82 CALM      30.00S
BILOXI         CLOUDY    56  55  94 E7        30.00R
PASCAGOULA     CLOUDY    56  53  90 NE3       30.01R
GULFPORT       CLOUDY    57  53  86 E6        30.00R
$$


USA.gov is the U.S. government's official web portal to all federal, state and local government web resources and services.